Date,TemperatureHighF,TemperatureAvgF,TemperatureLowF,DewpointHighF,DewpointAvgF,DewpointLowF,HumidityHigh,HumidityAvg,HumidityLow,PressureMaxIn,PressureMinIn,WindSpeedMaxMPH,WindSpeedAvgMPH,GustSpeedMaxMPH,PrecipitationSumIn
2013-1-1,37,32,19,27,18,7,71,59,46,29.93,29.71,14,4,21,0.00
2013-1-2,30,21,12,17,9,1,70,60,52,30.10,29.89,9,2,19,0.00
2013-1-3,26,16,6,10,1,-5,64,53,31,30.14,30.00,5,2,11,0.00
2013-1-4,39,30,20,24,20,10,80,67,52,29.99,29.81,15,2,20,0.00
2013-1-5,42,34,24,25,21,16,84,62,37,30.25,29.84,9,2,16,0.00
2013-1-6,44,34,26,29,26,21,87,74,54,30.23,29.93,7,1,15,0.00
2013-1-7,39,34,28,30,25,16,88,71,45,30.40,29.96,7,1,15,0.00
2013-1-8,47,38,29,29,28,26,91,71,49,30.36,30.25,13,2,20,0.00
2013-1-9,45,37,26,36,30,24,94,76,57,30.39,29.97,8,1,14,0.00
2013-1-10,48,42,34,29,25,23,67,51,39,30.53,30.03,14,4,27,0.00
2013-1-11,41,35,27,36,29,23,94,78,63,30.52,30.22,3,0,8,0.13
2013-1-12,45,42,38,43,40,36,97,95,91,30.23,30.12,2,0,5,0.02
2013-1-13,53,47,42,50,46,41,98,95,89,30.15,29.98,6,1,12,0.00
2013-1-14,62,53,43,53,43,28,94,72,40,30.24,29.84,10,3,14,0.00
2013-1-15,42,39,35,28,26,24,69,60,54,30.31,30.21,3,1,8,0.00
2013-1-16,35,33,30,32,30,23,96,89,62,30.24,29.82,3,1,5,0.12
2013-1-17,42,36,30,33,28,15,95,75,53,30.08,29.83,10,2,20,0.31
2013-1-18,30,23,18,14,1,-5,53,39,27,30.45,30.06,9,3,17,0.00
2013-1-19,49,37,23,33,22,6,75,57,39,30.39,29.89,11,3,20,0.00
2013-1-20,54,42,29,34,26,10,74,54,33,29.92,29.54,18,5,28,0.00
2013-1-21,29,25,22,21,11,5,89,56,37,30.10,29.80,7,2,17,0.00
2013-1-22,25,21,14,20,8,-2,91,61,36,30.08,29.75,11,3,17,0.00
2013-1-23,16,12,7,1,-7,-11,63,43,29,30.14,30.06,12,4,21,0.00
2013-1-24,21,12,3,-6,-9,-12,55,40,24,30.22,30.06,13,4,21,0.00
2013-1-25,24,17,9,13,-6,-12,84,38,23,30.30,30.07,11,3,17,0.00
2013-1-26,25,18,12,13,3,-6,85,56,29,30.23,30.00,11,2,14,0.00
2013-1-27,31,22,13,4,1,-5,64,43,26,30.46,30.23,12,3,16,0.00
2013-1-28,32,26,20,28,13,2,93,62,32,30.45,30.01,4,1,7,0.00
2013-1-29,34,31,26,33,28,24,95,90,84,30.19,30.02,2,0,3,0.13
2013-1-30,63,50,34,58,48,33,98,92,83,30.15,29.46,12,3,18,0.20
2013-1-31,61,49,32,58,37,15,94,67,37,29.59,28.97,18,7,30,0.15
2013-2-1,34,29,23,17,9,4,55,42,30,30.08,29.59,12,5,21,0.00
2013-2-2,31,25,18,13,7,3,56,47,38,30.25,30.05,12,3,18,0.00
2013-2-3,27,25,23,23,20,13,88,82,56,30.05,29.73,7,1,12,0.00
2013-2-4,30,25,21,22,12,6,88,59,38,29.94,29.72,14,4,21,0.00
2013-2-5,30,26,22,24,14,9,90,62,48,30.02,29.93,3,1,11,0.00
2013-2-6,39,31,26,26,20,5,91,66,38,30.28,29.92,11,2,19,0.04
2013-2-7,30,25,19,19,4,0,68,41,29,30.52,30.30,8,2,12,0.00
2013-2-8,33,30,18,31,26,17,97,87,69,30.48,29.59,8,3,14,0.00
2013-2-9,21,19,16,19,14,4,94,83,60,30.19,29.56,12,5,18,0.00
2013-2-10,42,24,10,17,7,2,80,51,22,30.39,30.20,5,1,11,0.04
2013-2-11,45,33,19,44,29,14,97,87,68,30.35,29.60,3,0,7,0.14
2013-2-12,45,40,34,38,30,27,97,70,53,29.87,29.60,14,4,24,0.00
2013-2-13,44,36,29,29,26,23,82,68,48,29.86,29.68,6,1,9,0.00
2013-2-14,47,37,31,29,24,21,84,61,37,29.99,29.71,4,1,9,0.00
2013-2-15,54,40,29,36,32,24,93,74,50,29.99,29.89,7,2,12,0.00
2013-2-16,39,35,31,33,28,18,95,76,55,29.94,29.72,7,2,10,0.02
2013-2-17,31,22,18,20,12,2,89,65,43,29.69,29.38,18,6,29,0.00
2013-2-18,33,24,15,4,2,-3,55,40,22,30.15,29.68,14,5,24,0.00
2013-2-19,49,38,24,43,25,4,96,62,42,30.16,29.57,8,2,15,0.44
2013-2-20,43,33,27,42,21,11,95,62,39,29.77,29.53,15,5,26,0.00
2013-2-21,34,28,25,16,14,11,67,55,43,30.16,29.77,17,4,19,0.00
2013-2-22,40,32,25,26,22,16,78,66,46,30.38,30.19,7,2,11,0.00
2013-2-23,40,35,30,33,30,24,95,80,69,30.33,29.92,5,1,9,0.15
2013-2-24,38,34,31,37,33,30,97,96,94,29.90,29.68,6,2,10,0.63
2013-2-25,42,36,30,33,30,29,96,83,63,30.24,29.89,4,1,7,0.17
2013-2-26,46,37,28,36,30,26,97,77,53,30.33,30.16,5,1,11,0.00
2013-2-27,42,40,38,41,38,32,97,94,78,30.15,29.55,13,4,18,1.79
2013-2-28,49,39,34,39,36,33,97,87,67,29.64,29.52,5,1,8,0.00
2013-3-1,41,39,35,36,31,28,90,75,63,29.67,29.52,7,2,10,0.00
2013-3-2,44,38,33,30,28,26,77,67,56,29.67,29.61,6,2,11,0.00
2013-3-3,43,36,33,33,29,25,91,75,64,29.64,29.55,6,2,10,0.00
2013-3-4,41,35,30,30,25,22,85,67,51,29.73,29.57,12,4,24,0.00
2013-3-5,46,38,32,34,28,23,88,70,53,30.06,29.74,8,2,12,0.00
2013-3-6,41,38,35,36,34,31,92,85,69,30.11,30.04,14,4,21,0.14
2013-3-7,37,32,31,32,31,30,96,92,76,30.06,29.98,8,4,14,0.11
2013-3-8,42,34,30,33,29,24,97,85,55,30.14,29.93,8,3,15,0.01
2013-3-9,46,37,29,32,27,22,94,69,53,30.35,30.14,6,2,9,0.16
2013-3-10,44,36,26,33,30,24,95,82,63,30.41,30.32,5,1,11,0.00
2013-3-11,55,44,36,41,37,33,92,78,59,30.33,30.15,7,2,10,0.00
2013-3-12,57,50,41,53,48,39,96,91,80,30.16,29.72,12,3,17,0.38
2013-3-13,53,46,38,52,31,20,96,61,31,29.78,29.69,9,3,16,0.00
2013-3-14,38,32,24,25,16,7,66,51,39,29.83,29.70,13,4,20,0.00
2013-3-15,42,31,20,28,13,4,72,49,24,29.87,29.63,12,4,20,0.00
2013-3-16,42,35,29,27,15,7,71,45,26,29.87,29.66,9,2,15,0.00
2013-3-17,39,32,24,19,10,4,68,43,24,30.32,29.87,11,2,16,0.00
2013-3-18,40,29,19,27,10,0,91,47,26,30.46,30.25,5,2,11,0.00
2013-3-19,36,33,29,35,32,27,97,95,91,30.24,29.60,14,2,18,0.91
2013-3-20,39,32,26,26,22,19,91,68,45,29.81,29.69,13,3,20,0.02
2013-3-21,38,32,26,30,23,17,92,71,47,29.82,29.61,4,1,7,0.03
2013-3-22,40,34,29,28,20,16,89,58,39,29.74,29.60,13,3,14,0.00
2013-3-23,44,36,29,24,20,17,74,54,34,29.78,29.63,13,5,21,0.00
2013-3-24,48,39,32,31,24,20,75,57,38,29.81,29.72,10,2,14,0.00
2013-3-25,47,39,32,35,31,27,84,74,59,29.77,29.52,9,2,16,0.00
2013-3-26,52,42,35,32,25,19,87,55,28,29.77,29.53,9,2,13,0.00
2013-3-27,54,44,32,33,25,22,71,49,30,29.86,29.73,11,3,14,0.00
2013-3-28,48,43,37,35,34,30,89,70,50,30.01,29.86,7,1,9,0.01
2013-3-29,59,49,37,35,33,29,82,56,36,30.04,29.95,7,2,12,0.00
2013-3-30,58,48,37,34,25,14,78,46,18,30.09,29.99,8,2,14,0.00
2013-3-31,61,47,30,41,27,21,78,51,21,30.12,29.75,12,2,18,0.01
2013-4-1,64,48,36,48,37,12,95,68,33,29.79,29.50,14,4,26,0.16
2013-4-2,41,35,30,18,13,10,53,41,30,29.94,29.80,15,6,25,0.00
2013-4-3,46,38,31,20,13,8,61,37,21,30.15,29.93,20,7,25,0.00
2013-4-4,58,43,30,27,16,10,59,38,16,30.29,30.05,9,3,16,0.00
2013-4-5,62,47,39,31,27,20,70,49,22,30.05,29.61,11,3,18,0.00
2013-4-6,48,40,33,26,10,2,57,33,15,30.33,29.88,20,4,20,0.00
2013-4-7,55,45,28,41,30,16,80,59,30,30.33,30.00,15,4,20,0.00
2013-4-8,67,53,45,44,41,35,91,66,32,30.09,29.94,9,2,12,0.00
2013-4-9,72,56,47,53,44,39,93,69,39,30.09,29.85,11,2,18,0.10
2013-4-10,65,52,46,49,45,42,94,79,55,30.00,29.86,4,1,7,0.21
2013-4-11,53,48,44,48,42,30,96,81,56,30.14,29.82,4,1,8,0.06
2013-4-12,44,40,38,39,36,31,96,86,62,30.16,29.79,9,3,15,0.50
2013-4-13,53,43,36,41,37,34,95,82,52,29.92,29.75,7,2,12,0.03
2013-4-14,53,47,40,42,33,27,90,61,39,30.21,29.91,10,3,17,0.00
2013-4-15,57,46,33,40,34,29,87,63,41,30.39,30.21,10,2,11,0.00
2013-4-16,66,53,39,51,42,36,93,69,44,30.40,30.06,14,3,18,0.00
2013-4-17,68,60,50,53,38,28,84,48,23,30.32,30.05,8,3,14,0.00
2013-4-18,66,54,42,45,36,27,76,53,31,30.43,30.14,7,2,15,0.00
2013-4-19,76,64,53,63,58,45,95,81,56,30.14,29.65,12,4,19,0.00
2013-4-20,67,55,46,63,41,24,94,64,36,30.20,29.60,12,4,22,0.60
2013-4-21,55,44,36,31,23,19,69,46,25,30.68,30.22,8,2,12,0.00
2013-4-22,50,43,33,36,31,24,88,65,36,30.76,30.59,12,2,18,0.00
2013-4-23,43,42,40,41,39,32,95,89,70,30.59,30.13,8,2,9,0.07
2013-4-24,78,56,42,52,45,39,96,71,26,30.11,29.79,8,3,14,0.00
2013-4-25,67,57,46,53,37,23,91,54,20,30.26,29.83,10,3,17,0.04
2013-4-26,59,50,41,42,37,32,87,62,44,30.43,30.26,9,2,13,0.00
2013-4-27,64,53,39,45,37,33,96,61,32,30.42,30.29,7,1,12,0.00
2013-4-28,68,56,40,42,36,28,90,52,28,30.34,30.21,8,2,15,0.00
2013-4-29,72,59,48,47,38,18,84,50,19,30.27,30.18,8,2,13,0.00
2013-4-30,69,57,44,38,30,14,75,42,13,30.36,30.25,8,1,12,0.00
2013-5-1,69,56,40,39,34,28,86,49,23,30.47,30.37,6,1,11,0.00
2013-5-2,78,56,44,48,42,37,90,63,26,30.48,30.36,6,1,13,0.00
2013-5-3,60,51,44,45,42,39,87,71,54,30.52,30.38,8,2,11,0.00
2013-5-4,57,49,41,45,41,38,94,75,54,30.37,30.31,9,1,13,0.00
2013-5-5,59,49,38,42,40,36,95,73,48,30.33,30.26,6,1,11,0.00
2013-5-6,66,52,40,50,45,39,96,80,50,30.29,30.15,5,1,8,0.00
2013-5-7,76,64,45,59,52,44,96,68,46,30.18,30.09,6,1,10,0.00
2013-5-8,72,62,54,63,58,53,96,86,72,30.20,30.05,6,1,9,0.13
2013-5-9,71,60,57,63,58,56,97,94,72,30.05,29.89,3,0,6,0.97
2013-5-10,80,66,56,61,58,55,98,75,43,29.95,29.89,4,1,10,0.01
2013-5-11,73,65,59,63,59,55,92,82,67,29.91,29.69,8,2,16,0.07
2013-5-12,74,63,52,60,51,30,94,70,37,29.81,29.56,10,2,18,0.09
2013-5-13,61,52,45,34,30,27,62,45,29,30.02,29.82,12,2,18,0.00
2013-5-14,61,52,41,36,31,28,71,47,29,30.04,29.96,5,1,13,0.00
2013-5-15,68,55,40,53,40,31,89,62,29,30.05,29.67,10,2,18,0.01
2013-5-16,83,68,50,52,42,32,95,47,18,29.80,29.62,12,2,20,0.00
2013-5-17,71,61,53,46,42,37,75,52,32,30.21,29.80,6,2,12,0.00
2013-5-18,74,62,46,49,45,38,91,57,28,30.30,30.21,6,1,10,0.00
2013-5-19,73,58,49,55,51,47,94,77,48,30.34,30.22,6,1,12,0.09
2013-5-20,86,68,56,68,61,54,97,81,50,30.22,29.90,6,2,10,0.22
2013-5-21,80,62,52,65,58,51,98,86,60,30.00,29.87,5,1,10,0.08
2013-5-22,68,57,51,60,54,50,96,88,72,30.05,29.89,5,1,9,0.09
2013-5-23,78,66,55,69,62,54,97,88,71,29.92,29.81,11,2,18,0.13
2013-5-24,73,64,50,67,61,49,96,92,74,29.82,29.65,5,1,11,0.81
2013-5-25,54,49,43,51,47,39,97,94,87,29.81,29.70,6,2,13,0.28
2013-5-26,60,50,40,43,40,38,93,71,48,30.09,29.71,8,2,14,0.06
2013-5-27,74,59,42,46,39,32,90,54,23,30.16,30.06,6,2,15,0.00
2013-5-28,74,61,45,54,47,39,96,64,33,30.23,30.16,6,1,8,0.00
2013-5-29,74,64,59,65,60,53,96,88,73,30.19,29.99,3,1,8,1.10
2013-5-30,90,77,64,69,66,63,97,72,47,30.07,29.99,8,2,15,0.01
2013-5-31,96,83,66,70,66,63,93,60,33,30.08,29.92,7,2,17,0.00
2013-6-1,94,82,70,69,66,63,80,59,37,29.97,29.85,8,3,14,0.00
2013-6-2,92,80,70,70,67,64,86,66,41,29.88,29.72,11,3,20,0.00
2013-6-3,80,71,65,68,64,44,93,79,47,29.84,29.75,5,1,11,0.35
2013-6-4,74,64,53,48,45,41,67,50,36,30.09,29.82,8,2,15,0.00
2013-6-5,77,66,52,51,47,43,86,53,32,30.18,30.09,6,1,8,0.00
2013-6-6,77,66,57,56,50,43,83,57,36,30.19,30.10,7,1,13,0.00
2013-6-7,60,56,54,57,54,49,97,92,77,30.11,29.82,5,1,8,2.87
2013-6-8,80,64,54,64,58,53,98,83,58,29.99,29.61,7,2,13,0.84
2013-6-9,83,71,57,59,56,53,95,63,38,30.15,30.00,5,1,10,0.00
2013-6-10,73,64,58,59,57,55,95,81,56,30.20,30.02,5,1,9,0.69
2013-6-11,65,59,56,60,57,55,97,93,81,30.02,29.57,7,1,10,1.43
2013-6-12,73,64,57,59,56,54,97,78,53,29.81,29.56,11,2,13,0.05
2013-6-13,72,59,53,57,54,51,96,84,52,29.81,29.67,5,0,7,0.69
2013-6-14,76,62,52,57,54,51,97,78,46,29.75,29.63,5,1,7,1.34
2013-6-15,82,69,54,55,48,41,91,53,24,29.93,29.75,5,1,13,0.00
2013-6-16,78,69,55,63,54,48,84,61,40,29.93,29.71,6,1,12,0.00
2013-6-17,88,72,61,64,60,56,95,71,35,29.90,29.77,11,2,13,0.26
2013-6-18,78,65,59,64,60,58,97,87,57,29.94,29.88,3,0,8,0.74
2013-6-19,77,66,56,59,53,47,96,68,37,30.14,29.90,5,1,7,0.03
2013-6-20,82,70,52,57,52,46,93,58,31,30.25,30.14,6,1,12,0.00
2013-6-21,87,74,60,65,59,54,80,61,36,30.25,30.18,6,2,10,0.00
2013-6-22,87,75,65,63,60,56,74,60,40,30.22,30.11,8,2,13,0.00
2013-6-23,92,79,67,72,65,57,79,64,49,30.16,29.98,9,3,14,0.00
2013-6-24,95,82,72,73,70,68,94,70,43,30.02,29.86,6,2,12,0.17
2013-6-25,94,81,71,71,68,66,92,67,41,29.91,29.71,9,3,18,0.00
2013-6-26,88,77,69,73,69,67,94,78,56,29.85,29.71,3,1,10,0.16
2013-6-27,74,66,63,68,64,62,96,92,77,29.86,29.76,4,1,8,0.05
2013-6-28,85,72,62,74,68,61,98,88,63,29.76,29.48,12,2,19,0.38
2013-6-29,86,77,72,72,69,66,94,79,55,29.72,29.51,9,2,16,0.00
2013-6-30,88,78,71,73,70,68,91,78,61,29.93,29.72,8,2,13,0.00
2013-7-1,84,77,72,76,72,70,94,86,71,30.07,29.93,7,2,12,0.15
2013-7-2,86,76,64,75,70,61,91,83,67,30.20,30.07,6,2,12,0.00
2013-7-3,91,78,63,74,69,61,92,76,55,30.19,30.12,9,2,12,0.00
2013-7-4,95,84,74,75,73,71,92,72,50,30.19,30.08,6,2,14,0.00
2013-7-5,98,87,78,75,74,72,84,67,45,30.15,30.02,8,2,15,0.00
2013-7-6,94,84,77,74,72,65,85,67,47,30.06,29.96,6,2,15,0.00
2013-7-7,96,82,71,76,70,65,88,69,48,30.01,29.89,6,1,8,0.01
2013-7-8,87,78,69,75,72,66,92,81,63,30.05,29.90,4,1,9,0.01
2013-7-9,76,70,66,68,66,64,94,86,75,30.10,30.04,2,0,6,0.00
2013-7-10,88,75,67,75,71,65,96,86,64,30.07,29.79,7,1,16,0.05
2013-7-11,84,77,72,74,72,69,94,85,66,29.91,29.77,4,1,7,0.15
2013-7-12,79,72,68,70,62,55,93,72,55,30.19,29.91,6,1,11,0.00
2013-7-13,80,71,67,70,66,63,96,84,72,30.30,30.19,3,0,8,0.06
2013-7-14,95,80,70,75,72,68,97,77,42,30.29,30.19,4,0,9,0.00
2013-7-15,95,83,72,76,72,70,96,73,46,30.19,30.08,2,0,6,0.00
2013-7-16,97,84,73,74,69,66,89,63,38,30.16,30.10,4,0,6,0.00
2013-7-17,98,85,72,74,71,67,90,65,37,30.16,29.99,7,1,13,0.00
2013-7-18,96,84,78,76,72,68,83,68,46,30.00,29.93,7,1,11,0.00
2013-7-19,99,88,78,79,75,70,88,67,41,29.93,29.70,9,2,17,0.00
2013-7-20,95,86,79,77,74,64,86,67,46,29.80,29.63,8,2,15,0.00
2013-7-21,83,76,70,70,65,61,94,70,53,29.98,29.80,3,1,8,0.10
2013-7-22,82,74,68,71,68,66,97,83,61,30.01,29.88,5,1,10,0.01
2013-7-23,83,73,70,76,71,67,97,93,78,29.88,29.53,4,1,11,1.51
2013-7-24,87,78,70,75,68,57,98,75,51,29.93,29.58,6,1,9,0.01
2013-7-25,68,62,60,59,55,50,96,79,63,30.09,29.95,4,1,8,0.45
2013-7-26,72,65,60,68,63,59,97,92,80,30.05,29.92,5,1,7,0.97
2013-7-27,86,74,61,68,64,59,95,73,45,30.05,29.98,10,2,10,0.00
2013-7-28,84,73,67,72,68,65,95,85,65,30.01,29.96,5,0,8,0.02
2013-7-29,87,74,68,72,68,66,96,84,58,30.02,29.96,6,1,14,0.14
2013-7-30,85,75,62,68,60,55,96,64,37,30.09,30.02,6,1,11,0.01
2013-7-31,85,74,62,65,60,55,90,64,40,30.13,30.03,3,0,6,0.00
2013-8-1,85,73,64,66,63,60,93,71,48,30.05,29.88,11,2,14,0.00
2013-8-2,85,74,65,69,63,58,96,72,42,29.88,29.78,9,1,15,0.56
2013-8-3,81,73,66,65,63,61,88,72,51,29.86,29.77,5,2,13,0.00
2013-8-4,83,71,61,64,58,54,85,65,39,29.88,29.76,6,1,10,0.03
2013-8-5,79,67,57,55,49,43,83,56,28,30.04,29.88,6,1,11,0.00
2013-8-6,82,68,54,56,52,49,85,59,33,30.14,30.04,5,1,7,0.00
2013-8-7,83,71,59,61,55,50,92,61,34,30.18,30.11,7,1,14,0.00
2013-8-8,82,73,66,71,66,55,90,79,66,30.13,30.00,9,2,12,0.04
2013-8-9,76,74,72,74,71,69,96,93,87,30.02,29.74,9,2,13,1.44
2013-8-10,85,76,67,72,62,55,96,66,39,30.00,29.78,10,2,15,0.01
2013-8-11,82,70,58,60,55,51,88,62,39,30.07,29.99,4,1,8,0.00
2013-8-12,85,74,62,63,59,54,87,63,37,30.02,29.91,9,1,9,0.00
2013-8-13,79,71,66,67,64,62,90,80,59,29.92,29.68,3,0,10,0.00
2013-8-14,76,69,62,64,55,51,90,64,43,29.96,29.66,9,2,18,0.00
2013-8-15,79,68,57,55,52,48,84,60,36,30.11,29.96,5,1,10,0.00
2013-8-16,82,70,57,59,55,51,87,61,36,30.19,30.10,5,1,12,0.00
2013-8-17,81,70,58,60,58,55,91,67,43,30.27,30.19,6,0,8,0.00
2013-8-18,84,72,61,63,59,56,91,67,41,30.27,30.08,5,1,10,0.00
2013-8-19,84,73,60,62,60,58,91,66,42,30.08,29.94,7,1,9,0.00
2013-8-20,89,76,64,64,62,58,89,63,37,30.08,29.97,5,1,7,0.00
2013-8-21,91,78,65,66,64,60,87,63,40,30.14,30.02,6,1,10,0.00
2013-8-22,88,77,68,72,68,64,89,73,50,30.03,29.82,6,2,12,0.00
2013-8-23,85,74,65,70,61,51,91,66,38,30.12,29.81,5,1,8,0.00
2013-8-24,78,68,57,52,48,44,78,53,31,30.33,30.12,6,1,9,0.00
2013-8-25,86,72,55,57,52,44,90,55,25,30.36,30.18,4,1,10,0.00
2013-8-26,83,73,67,67,62,57,80,69,52,30.18,29.86,7,2,15,0.00
2013-8-27,83,74,67,70,68,65,95,82,61,29.89,29.83,6,1,8,0.03
2013-8-28,85,72,64,69,65,62,97,82,53,29.98,29.85,4,1,12,0.00
2013-8-29,67,65,62,65,62,58,93,89,83,30.07,29.95,3,1,7,0.00
2013-8-30,86,72,63,69,64,59,87,75,52,30.02,29.82,6,1,8,0.00
2013-8-31,82,76,70,73,71,67,93,85,72,29.83,29.78,7,2,9,0.00
2013-9-1,82,74,70,76,71,67,94,90,81,29.88,29.78,5,1,10,0.19
2013-9-2,85,76,72,74,72,69,96,87,69,29.87,29.71,7,1,13,0.04
2013-9-3,83,75,67,72,68,60,96,80,59,29.80,29.68,9,1,11,0.00
2013-9-4,82,71,60,61,57,54,89,63,37,29.91,29.80,8,2,14,0.00
2013-9-5,72,64,52,62,57,45,92,77,40,30.14,29.85,3,0,7,0.08
2013-9-6,72,60,46,47,43,38,87,56,30,30.24,30.09,3,1,9,0.00
2013-9-7,82,66,52,57,50,45,81,59,33,30.09,29.85,6,2,10,0.00
2013-9-8,78,66,53,62,52,41,85,62,36,30.09,29.74,8,2,13,0.00
2013-9-9,72,60,45,51,44,41,87,60,36,30.23,30.09,6,1,10,0.00
2013-9-10,77,68,57,70,62,51,92,82,76,30.15,30.02,7,2,13,0.09
2013-9-11,97,82,70,77,72,67,96,74,42,30.06,29.93,7,2,11,0.00
2013-9-12,89,79,68,74,71,67,95,78,57,29.96,29.67,8,2,20,0.96
2013-9-13,82,70,60,69,65,55,97,85,57,29.75,29.56,4,0,7,0.10
2013-9-14,70,62,54,55,53,51,90,73,59,30.05,29.75,4,1,8,0.00
2013-9-15,73,61,49,53,49,45,96,69,38,30.16,30.05,6,1,10,0.00
2013-9-16,69,60,50,55,50,40,83,72,57,30.25,30.01,4,1,6,0.01
2013-9-17,66,54,42,45,40,36,83,61,38,30.42,30.25,4,0,7,0.00
2013-9-18,77,60,44,50,45,41,92,62,28,30.32,30.14,4,1,8,0.00
2013-9-19,82,65,50,55,51,47,89,66,32,30.14,30.02,4,0,6,0.00
2013-9-20,82,66,52,59,55,50,94,72,39,30.08,29.99,3,0,6,0.00
2013-9-21,78,67,55,66,60,54,97,80,54,30.03,29.73,13,2,19,0.00
2013-9-22,73,66,54,67,57,47,95,75,47,29.83,29.60,7,2,16,0.71
2013-9-23,65,55,47,45,42,40,80,64,47,30.00,29.83,6,1,10,0.00
2013-9-24,70,55,44,46,42,40,85,65,39,29.99,29.81,5,1,12,0.00
2013-9-25,68,57,46,50,47,44,93,72,51,29.98,29.88,4,1,7,0.00
2013-9-26,69,60,55,52,49,47,84,69,47,30.11,29.98,5,0,9,0.00
2013-9-30,70,58,50,53,51,48,95,79,54,29.99,29.96,2,0,6,0.00
2013-10-1,79,62,48,55,51,47,97,73,37,29.96,29.84,4,0,6,0.01
2013-10-2,81,68,54,61,58,53,95,73,49,29.94,29.82,11,2,18,0.00
2013-10-3,80,66,54,58,51,45,95,63,31,30.08,29.95,5,0,7,0.00
2013-10-4,69,61,53,59,55,50,90,80,68,30.08,30.03,1,0,2,0.03
2013-10-5,71,64,59,59,57,55,92,80,62,30.12,30.05,2,0,5,0.00
2013-10-6,61,58,55,58,56,54,97,94,83,30.22,30.11,3,0,6,0.40
2013-10-7,80,68,58,71,64,55,98,88,69,30.12,29.82,13,2,20,0.03
2013-10-8,68,59,49,55,45,39,80,63,38,30.37,29.89,4,1,10,0.00
2013-10-9,63,53,45,47,44,42,94,74,51,30.46,30.36,4,1,11,0.00
2013-10-10,64,53,44,53,49,43,97,86,67,30.36,30.18,2,0,6,0.00
2013-10-11,73,59,50,56,51,44,96,77,37,30.17,30.09,3,0,7,0.00
2013-10-12,61,55,49,57,52,48,97,90,82,30.39,30.14,5,0,10,0.00
2013-10-13,62,53,42,50,47,41,95,81,59,30.44,30.37,5,1,8,0.00
2013-10-14,67,51,36,51,43,36,98,78,33,30.41,30.25,3,0,7,0.01
2013-10-15,70,58,48,55,51,46,95,79,55,30.27,30.18,3,0,8,0.00
2013-10-16,64,56,50,56,53,48,97,89,73,30.17,29.91,1,0,3,0.00
2013-10-17,74,62,53,61,58,52,97,85,61,29.91,29.72,6,1,10,0.00
2013-10-18,69,62,52,61,51,43,95,70,44,29.90,29.61,9,2,23,0.04
2013-10-19,68,56,42,48,43,39,92,64,39,29.97,29.76,6,1,10,0.00
2013-10-20,63,55,44,51,41,33,94,63,33,30.01,29.69,10,2,15,0.01
2013-10-21,69,54,39,45,40,36,90,63,37,30.11,30.00,6,1,10,0.00
2013-10-22,70,56,43,53,46,38,97,73,47,29.99,29.70,7,1,12,0.00
2013-10-23,53,47,38,38,35,32,90,64,46,29.80,29.59,5,0,6,0.00
2013-10-24,55,46,40,36,30,24,77,55,33,29.89,29.64,11,2,16,0.00
2013-10-25,51,42,33,35,29,27,87,61,40,30.16,29.89,7,1,13,0.00
2013-10-26,57,45,31,37,31,25,88,61,30,30.16,29.88,9,2,16,0.00
2013-10-27,56,49,43,40,35,29,86,60,39,30.06,29.82,9,2,15,0.02
2013-10-28,60,46,36,35,32,24,81,59,38,30.35,30.07,10,2,18,0.00
2013-10-29,51,40,32,34,28,23,91,64,34,30.45,30.36,4,0,6,0.00
2013-10-30,53,42,34,43,37,32,95,84,63,30.37,30.20,4,0,9,0.04
2013-10-31,63,51,34,60,48,33,97,91,80,30.25,29.80,11,1,15,0.06
2013-11-1,71,65,59,63,59,54,94,80,65,29.79,29.46,14,4,23,0.05
2013-11-2,69,57,47,54,46,40,94,69,36,29.73,29.58,3,0,8,0.00
2013-11-3,52,42,33,47,31,16,91,67,40,30.43,29.71,4,1,8,0.03
2013-11-4,45,34,28,25,19,-100,82,57,31,30.71,30.43,4,-10,6,0.00
2013-11-5,52,39,26,35,28,22,88,68,42,30.73,30.52,2,0,8,0.00
2013-11-6,62,52,40,51,42,34,87,71,49,30.52,30.05,8,2,13,0.00
2013-11-7,67,55,41,59,50,33,93,84,68,30.04,29.67,6,2,20,0.27
2013-11-8,48,41,34,35,28,22,79,60,46,30.10,29.82,10,3,19,0.00
2013-11-9,46,40,31,29,24,21,74,56,37,30.22,30.05,9,2,14,0.00
2013-11-10,58,47,42,43,37,30,93,68,48,30.04,29.74,12,2,17,0.05
2013-11-11,53,46,40,33,29,24,66,52,33,30.10,29.86,8,3,16,0.00
2013-11-12,48,36,28,40,26,16,91,66,52,30.20,29.89,9,2,17,0.13
2013-11-13,37,30,24,17,15,11,72,54,37,30.30,30.18,10,2,11,0.00
2013-11-14,52,40,30,27,21,17,62,47,33,30.17,30.04,7,2,16,0.00
2013-11-15,63,52,38,35,24,18,64,37,18,30.20,30.10,6,2,11,0.00
2013-11-16,62,47,37,34,30,23,83,57,23,30.32,30.19,4,0,7,0.00
2013-11-17,58,47,34,55,43,31,97,85,68,30.32,29.85,2,0,4,0.10
2013-11-18,66,60,49,62,48,33,97,68,43,29.84,29.53,11,3,18,0.17
2013-11-19,49,41,32,32,22,17,56,48,38,30.27,29.66,11,4,22,0.00
2013-11-20,43,33,27,17,15,12,66,48,30,30.62,30.28,7,2,13,0.00
2013-11-21,49,36,23,31,21,16,77,56,31,30.64,30.38,4,1,9,0.00
2013-11-22,47,45,41,46,42,31,96,89,68,30.37,29.81,3,0,6,0.24
2013-11-23,49,41,31,46,27,14,94,58,33,29.90,29.78,10,4,25,0.00
2013-11-24,30,25,21,18,4,-5,68,43,25,30.18,29.79,17,6,30,0.00
2013-11-25,34,26,17,18,3,-8,58,39,18,30.36,30.19,10,3,18,0.00
2013-11-26,43,38,32,42,24,17,95,61,44,30.33,30.03,8,1,11,0.09
2013-11-27,62,52,38,61,51,34,97,95,85,30.02,29.20,12,3,22,2.01
2013-11-28,38,32,26,34,17,6,84,56,34,30.43,29.45,21,6,26,0.00
2013-11-29,34,28,22,17,12,6,72,52,35,30.75,30.43,5,1,13,0.00
2013-11-30,36,27,18,25,16,8,74,63,50,30.79,30.44,4,1,7,0.00
2013-12-1,40,37,33,38,34,25,97,89,72,30.42,30.01,4,0,8,0.25
2013-12-2,41,38,36,39,37,35,97,95,92,30.01,29.92,3,0,5,0.01
2013-12-3,49,40,36,38,35,32,96,83,58,29.95,29.84,5,1,6,0.00
2013-12-4,44,37,32,32,29,27,89,75,52,30.20,29.95,4,1,10,0.00
2013-12-5,54,44,32,53,41,29,98,87,73,30.21,29.91,3,0,8,0.00
2013-12-6,57,50,34,55,45,30,96,84,52,30.14,29.85,6,1,8,0.30
2013-12-7,41,35,29,33,27,20,95,76,54,30.44,30.07,7,2,15,0.19
2013-12-8,31,29,23,21,17,14,76,60,52,30.60,30.45,3,1,7,0.00
2013-12-9,41,34,26,40,32,16,97,92,56,30.49,29.88,6,1,10,0.01
2013-12-10,36,32,26,34,29,16,95,87,62,30.00,29.78,8,2,22,0.05
2013-12-11,32,27,23,21,19,17,79,72,59,30.22,30.00,8,2,13,0.00
2013-12-12,26,22,17,18,8,0,79,56,35,30.28,30.08,8,2,14,0.00
2013-12-13,30,23,15,18,11,2,76,62,49,30.40,30.00,11,3,21,0.00
2013-12-14,30,15,11,29,-13,-100,96,56,48,30.61,30.15,6,-209,12,0.00
2013-12-15,35,29,22,35,26,20,97,91,78,30.14,29.42,10,3,13,0.04
2013-12-16,29,25,19,23,14,8,85,64,43,30.21,29.75,14,3,18,0.00
2013-12-17,21,15,8,19,10,0,94,78,60,30.30,29.95,6,1,7,0.00
2013-12-18,35,26,16,23,20,15,92,79,56,30.08,29.87,7,2,14,0.01
2013-12-19,44,34,26,28,24,20,81,67,49,30.11,29.95,8,2,18,0.19
2013-12-20,55,43,31,38,33,27,87,70,51,30.12,29.90,4,1,8,0.04
2013-12-21,60,50,44,49,44,35,88,78,67,29.95,29.85,5,1,9,0.00
2013-12-22,54,42,35,52,41,34,97,95,89,30.03,29.80,9,1,12,0.00
2013-12-23,38,35,32,37,34,32,98,97,94,30.10,29.94,4,1,6,0.76
2013-12-24,38,33,27,36,22,15,92,65,49,30.20,30.05,6,2,10,0.00
2013-12-25,27,20,15,16,6,2,64,55,42,30.55,30.20,10,2,15,0.00
2013-12-26,36,28,18,32,22,8,93,81,64,30.51,30.09,5,1,9,0.00
2013-12-27,34,30,25,23,21,20,86,71,56,30.27,30.19,9,2,13,0.00
2013-12-28,48,35,25,28,26,21,87,70,46,30.21,29.98,10,1,13,0.01
2013-12-29,43,37,29,40,33,25,97,86,67,30.03,29.40,7,1,10,1.42
2013-12-30,43,34,19,36,24,10,95,70,40,30.16,29.52,12,3,22,0.00
2013-12-31,26,20,14,16,6,-4,73,56,43,30.18,30.03,6,2,11,0.00
2014-1-1,28,23,18,12,9,6,67,55,43,30.39,30.19,8,2,16,0.00
2014-1-2,23,13,2,16,10,-1,89,87,59,30.36,29.86,8,3,15,0.00